When you browse on this site, cookies collect data to enhance your experience and personalize the content and advertising you see.
Visit our Privacy Policy to learn more. By continuing to use the site, you agree to this use of cookies and data.
  • In Österreich
  • Länderverzeichnis
  • Für 7 Tage
  • Wassertemperatur
  • Wetterkarte
  • News
  • Widgets
  • user-avatar
    Anmelden

    Stündliche Wetter Lyudenevichi

    Heute, 7 Juni, Sonntag

    Zeit Temperatur Niederschläge Wind Luftdruck Luftfeuchtigkeit
    00:00 +16°C° 0 mm 1 m/S 747 mmHg 88%
    01:00 +16°C° 0 mm 1 m/S 747 mmHg 89%
    02:00 +16°C° 0 mm 1 m/S 748 mmHg 90%
    03:00 +16°C° 0 mm 2 m/S 748 mmHg 91%
    04:00 +16°C° 0 mm 2 m/S 748 mmHg 91%
    05:00 +16°C° 0 mm 2 m/S 748 mmHg 91%
    06:00 +18°C° 0 mm 2 m/S 748 mmHg 88%
    07:00 +19°C° 0 mm 3 m/S 748 mmHg 85%
    08:00 +21°C° 0 mm 3 m/S 748 mmHg 82%
    09:00 +22°C° 0 mm 3 m/S 748 mmHg 77%
    10:00 +24°C° 0 mm 3 m/S 748 mmHg 72%
    11:00 +26°C° 0 mm 3 m/S 748 mmHg 67%
    12:00 +27°C° 0 mm 4 m/S 748 mmHg 66%
    13:00 +28°C° 0 mm 4 m/S 748 mmHg 64%
    14:00 +28°C° 0 mm 4 m/S 748 mmHg 63%
    15:00 +28°C° 0 mm 4 m/S 747 mmHg 62%
    16:00 +28°C° 0 mm 4 m/S 747 mmHg 61%
    17:00 +28°C° 0 mm 4 m/S 746 mmHg 60%
    18:00 +26°C° 0 mm 4 m/S 746 mmHg 66%
    19:00 +23°C° 0 mm 4 m/S 747 mmHg 73%
    20:00 +22°C° 0 mm 3 m/S 747 mmHg 79%
    21:00 +20°C° 0 mm 3 m/S 747 mmHg 82%
    22:00 +19°C° 0 mm 3 m/S 747 mmHg 85%
    23:00 +18°C° 0 mm 3 m/S 747 mmHg 89%

    Morgen, 8 Juni, Montag

    Zeit Temperatur Niederschläge Wind Luftdruck Luftfeuchtigkeit
    00:00 +18°C° 0 mm 3 m/S 747 mmHg 90%
    01:00 +18°C° 0 mm 3 m/S 747 mmHg 91%
    02:00 +17°C° 0 mm 3 m/S 747 mmHg 93%
    03:00 +17°C° 0 mm 3 m/S 747 mmHg 92%
    04:00 +17°C° 0 mm 3 m/S 747 mmHg 91%
    05:00 +17°C° 0 mm 3 m/S 747 mmHg 91%
    06:00 +19°C° 0 mm 3 m/S 747 mmHg 84%
    07:00 +21°C° 0 mm 4 m/S 747 mmHg 77%
    08:00 +23°C° 0 mm 4 m/S 747 mmHg 70%
    09:00 +25°C° 0 mm 4 m/S 747 mmHg 64%
    10:00 +27°C° 0 mm 4 m/S 748 mmHg 58%
    11:00 +29°C° 0 mm 4 m/S 748 mmHg 52%
    12:00 +29°C° 0 mm 4 m/S 748 mmHg 50%
    13:00 +30°C° 0 mm 4 m/S 747 mmHg 49%
    14:00 +30°C° 0 mm 4 m/S 747 mmHg 47%
    15:00 +30°C° 0.1 mm 4 m/S 747 mmHg 52%
    16:00 +29°C° 0.1 mm 4 m/S 747 mmHg 57%
    17:00 +28°C° 0.1 mm 4 m/S 746 mmHg 62%
    18:00 +27°C° 0.1 mm 3 m/S 746 mmHg 67%
    19:00 +25°C° 0.1 mm 3 m/S 746 mmHg 73%
    20:00 +22°C° 0.1 mm 3 m/S 746 mmHg 79%
    21:00 +21°C° 0 mm 2 m/S 747 mmHg 83%
    22:00 +20°C° 0 mm 2 m/S 747 mmHg 86%
    23:00 +19°C° 0 mm 2 m/S 747 mmHg 90%

    übermorgen, 9 Juni, Dienstag

    Zeit Temperatur Niederschläge Wind Luftdruck Luftfeuchtigkeit
    00:00 +19°C° 0 mm 2 m/S 747 mmHg 91%
    01:00 +18°C° 0 mm 2 m/S 747 mmHg 92%
    02:00 +18°C° 0 mm 3 m/S 747 mmHg 92%
    03:00 +18°C° 0 mm 3 m/S 747 mmHg 92%
    04:00 +18°C° 0 mm 3 m/S 747 mmHg 93%
    05:00 +19°C° 0 mm 3 m/S 747 mmHg 93%
    06:00 +20°C° 0 mm 3 m/S 747 mmHg 88%
    07:00 +21°C° 0 mm 3 m/S 747 mmHg 83%
    08:00 +24°C° 0 mm 3 m/S 747 mmHg 78%
    09:00 +25°C° 0 mm 4 m/S 747 mmHg 70%
    10:00 +27°C° 0 mm 4 m/S 747 mmHg 61%
    11:00 +29°C° 0 mm 4 m/S 747 mmHg 53%
    12:00 +29°C° 0 mm 4 m/S 747 mmHg 52%
    13:00 +30°C° 0 mm 4 m/S 747 mmHg 51%
    14:00 +30°C° 0 mm 4 m/S 747 mmHg 49%
    15:00 +30°C° 0 mm 4 m/S 747 mmHg 53%
    16:00 +30°C° 0 mm 4 m/S 747 mmHg 56%
    17:00 +29°C° 0 mm 3 m/S 746 mmHg 59%
    18:00 +28°C° 0 mm 3 m/S 746 mmHg 66%
    19:00 +26°C° 0 mm 2 m/S 747 mmHg 72%
    20:00 +24°C° 0 mm 2 m/S 747 mmHg 79%
    21:00 +23°C° 0 mm 2 m/S 747 mmHg 82%
    22:00 +23°C° 0 mm 2 m/S 747 mmHg 85%
    23:00 +21°C° 0 mm 3 m/S 747 mmHg 88%

    10 Juni, Mittwoch

    Zeit Temperatur Niederschläge Wind Luftdruck Luftfeuchtigkeit
    00:00 +20°C° 0.1 mm 3 m/S 747 mmHg 90%
    01:00 +20°C° 0.1 mm 3 m/S 747 mmHg 92%
    02:00 +19°C° 0.1 mm 3 m/S 747 mmHg 94%
    03:00 +19°C° 0.6 mm 3 m/S 747 mmHg 95%
    04:00 +20°C° 0.6 mm 3 m/S 747 mmHg 95%
    05:00 +20°C° 0.6 mm 3 m/S 747 mmHg 95%
    06:00 +21°C° 0 mm 3 m/S 747 mmHg 91%
    07:00 +22°C° 0 mm 3 m/S 747 mmHg 86%
    08:00 +24°C° 0 mm 3 m/S 747 mmHg 82%
    09:00 +26°C° 0.1 mm 4 m/S 747 mmHg 75%
    10:00 +27°C° 0.1 mm 4 m/S 747 mmHg 68%
    11:00 +29°C° 0.1 mm 5 m/S 747 mmHg 61%
    12:00 +30°C° 0.2 mm 5 m/S 746 mmHg 58%
    13:00 +30°C° 0.2 mm 5 m/S 746 mmHg 55%
    14:00 +32°C° 0.2 mm 5 m/S 746 mmHg 52%
    15:00 +32°C° 0.3 mm 4 m/S 746 mmHg 55%
    16:00 +30°C° 0.3 mm 4 m/S 746 mmHg 57%
    17:00 +30°C° 0.3 mm 4 m/S 746 mmHg 60%
    18:00 +28°C° 0.1 mm 3 m/S 746 mmHg 67%
    19:00 +26°C° 0.1 mm 3 m/S 746 mmHg 74%
    20:00 +24°C° 0.1 mm 2 m/S 746 mmHg 81%
    21:00 +23°C° 0.1 mm 2 m/S 746 mmHg 85%
    22:00 +21°C° 0.1 mm 2 m/S 746 mmHg 88%
    23:00 +20°C° 0.1 mm 2 m/S 746 mmHg 92%

    11 Juni, Donnerstag

    Zeit Temperatur Niederschläge Wind Luftdruck Luftfeuchtigkeit
    00:00 +20°C° 0 mm 2 m/S 746 mmHg 93%
    01:00 +20°C° 0 mm 2 m/S 746 mmHg 95%
    02:00 +20°C° 0 mm 2 m/S 746 mmHg 96%
    03:00 +20°C° 0 mm 2 m/S 746 mmHg 96%
    04:00 +20°C° 0 mm 2 m/S 746 mmHg 96%
    05:00 +20°C° 0 mm 2 m/S 746 mmHg 96%
    06:00 +21°C° 0 mm 2 m/S 746 mmHg 91%
    07:00 +24°C° 0 mm 2 m/S 746 mmHg 86%
    08:00 +25°C° 0 mm 2 m/S 746 mmHg 81%
    09:00 +27°C° 0.2 mm 3 m/S 746 mmHg 75%
    10:00 +28°C° 0.2 mm 3 m/S 746 mmHg 68%
    11:00 +30°C° 0.2 mm 4 m/S 746 mmHg 62%
    12:00 +30°C° 0.5 mm 4 m/S 746 mmHg 60%
    13:00 +32°C° 0.5 mm 4 m/S 746 mmHg 57%
    14:00 +32°C° 0.5 mm 4 m/S 746 mmHg 55%
    15:00 +32°C° 0 mm 4 m/S 745 mmHg 56%
    16:00 +32°C° 0 mm 4 m/S 745 mmHg 58%
    17:00 +31°C° 0 mm 3 m/S 745 mmHg 59%
    18:00 +29°C° 0.1 mm 3 m/S 745 mmHg 65%
    19:00 +27°C° 0.1 mm 3 m/S 745 mmHg 70%
    20:00 +25°C° 0.1 mm 2 m/S 745 mmHg 76%
    21:00 +24°C° 0 mm 2 m/S 745 mmHg 80%
    22:00 +23°C° 0 mm 2 m/S 746 mmHg 84%
    23:00 +21°C° 0 mm 2 m/S 746 mmHg 87%

    12 Juni, Freitag

    Zeit Temperatur Niederschläge Wind Luftdruck Luftfeuchtigkeit
    00:00 +21°C° 0 mm 2 m/S 746 mmHg 90%
    01:00 +20°C° 0 mm 2 m/S 746 mmHg 93%
    02:00 +20°C° 0 mm 2 m/S 746 mmHg 95%
    03:00 +20°C° 0 mm 2 m/S 745 mmHg 96%
    04:00 +20°C° 0 mm 2 m/S 745 mmHg 96%
    05:00 +20°C° 0 mm 2 m/S 745 mmHg 96%
    06:00 +21°C° 0 mm 2 m/S 745 mmHg 91%
    07:00 +24°C° 0 mm 3 m/S 745 mmHg 86%
    08:00 +26°C° 0 mm 3 m/S 746 mmHg 81%
    09:00 +27°C° 0 mm 3 m/S 745 mmHg 73%
    10:00 +29°C° 0 mm 4 m/S 745 mmHg 66%
    11:00 +30°C° 0 mm 4 m/S 745 mmHg 58%
    12:00 +30°C° 0 mm 4 m/S 745 mmHg 55%
    13:00 +32°C° 0 mm 4 m/S 745 mmHg 53%
    14:00 +33°C° 0 mm 4 m/S 745 mmHg 50%
    15:00 +33°C° 0 mm 4 m/S 744 mmHg 53%
    16:00 +31°C° 0 mm 3 m/S 744 mmHg 56%
    17:00 +31°C° 0 mm 3 m/S 744 mmHg 58%
    18:00 +29°C° 0 mm 3 m/S 744 mmHg 65%
    19:00 +28°C° 0 mm 3 m/S 744 mmHg 71%
    20:00 +26°C° 0 mm 3 m/S 744 mmHg 78%
    21:00 +25°C° 0 mm 3 m/S 745 mmHg 80%
    22:00 +24°C° 0 mm 3 m/S 745 mmHg 83%
    23:00 +22°C° 0 mm 3 m/S 745 mmHg 86%
    Mehr zeigen